Location: Unspecified
(0.0000°N, 0.0000°E)
Time: 09:25:09
(UTC+01:00)

Iridium 15 - Visible Passes

Search period start: 26 January 2015 00:00
Search period end: 05 February 2015 00:00
Orbit: 776 x 779 km, 86.4° (Epoch: 25 January)

Date Brightness Start Highest point End Pass type
(mag) Time Alt. Az. Time Alt. Az. Time Alt. Az.
26 Jan 8.9 05:19:57 10° ENE 05:22:33 14° E 05:25:29 10° ESE visible
26 Jan 9.6 19:35:50 10° W 19:36:55 10° W 19:37:30 10° W visible
27 Jan 6.0 06:24:30 10° N 06:29:40 70° W 06:34:52 10° S visible
28 Jan 6.8 05:51:11 10° NNE 05:56:13 52° E 06:01:17 10° SSE visible
29 Jan 8.3 05:18:40 10° NE 05:22:41 24° E 05:26:53 10° SE visible
30 Jan 6.4 06:24:51 10° NNW 06:29:45 42° W 06:34:39 10° SSW visible
31 Jan 6.0 05:51:05 10° N 05:56:17 86° E 06:01:31 10° S visible
01 Feb 7.4 05:18:02 10° NNE 05:22:48 38° E 05:27:38 10° SSE visible
02 Feb 8.6 04:46:02 10° NE 04:49:14 17° E 04:52:44 10° SE visible
02 Feb 7.0 06:25:31 10° NW 06:29:52 26° W 06:34:06 10° SW visible
03 Feb 6.0 05:52:02 15° NNW 05:56:21 58° W 06:01:29 10° SSW visible
04 Feb 6.4 05:19:54 25° NNE 05:22:53 62° E 05:28:03 10° S visible
